Home > Weather > Auxerre > Past weeks

Flag for France Past Weather in Auxerre, Burgundy, France — Yesterday and Last 2 Weeks

Now
63 °F

Passing clouds.


Feels Like: 63 °F
Forecast: 56 / 74 °F
Wind: 2 mph from Northeast

Location: Troyes Airport

Current Time: Jul 30, 2016 at 5:35:54 AM

Latest Report: Jul 30, 2016 at 5:00 AM


Visibility: N/A

Pressure: 29.95 "Hg

Humidity: 94%

Dew Point: 61 °F

Location of AuxerreLocation

Past Weather in Auxerre — Graph

°F

Auxerre Temperature Yesterday

Maximum temperature yesterday: 75 °F (at 3:30 PM)
Minimum temperature yesterday: 61 °F (at 12:00 AM)
Average temperature yesterday: 68 °F

High & Low Weather Summary for the Past Weeks

 TemperatureHumidityPressure
High93 °F (Jul 19, 4:30 PM)100% (Jul 16, 7:00 AM)30.36 "Hg (Jul 16, 7:00 AM)
Low46 °F (Jul 15, 6:00 AM)31% (Jul 15, 4:30 PM)29.92 "Hg (Jul 20, 6:00 AM)
Average70 °F73%30.10 "Hg
* Reported Jul 15 4:00 AM — Jul 30 4:30 AM, Auxerre, Weather by CustomWeather, © 2016

Note: Actual official high and low records may vary slightly from our data, if they occured in-between our weather recording intervals... More about our weather records

Advertising

Auxerre Weather History for the Previous 24 Hours

Scroll right to see more
 ConditionsComfort  
Time TempWeatherWind HumidityBarometerVisibility
4:30 AM
Sat, Jul 30
63 °FPassing clouds.2 mph94%29.95 "HgN/A
4:00 AM64 °FPassing clouds.No wind83%29.95 "HgN/A
3:30 AM63 °FOvercast.3 mph94%29.95 "HgN/A
3:00 AM63 °FPassing clouds.5 mph94%29.95 "HgN/A
2:30 AM61 °FPassing clouds.6 mph94%29.95 "HgN/A
2:00 AM61 °FClear.5 mph94%29.95 "Hg10 mi
1:30 AM61 °FClear.6 mph94%29.98 "Hg10 mi
1:00 AM63 °FClear.6 mph88%29.98 "Hg10 mi
12:30 AM63 °FPassing clouds.5 mph94%29.98 "HgN/A
12:00 AM63 °FPassing clouds.5 mph88%29.98 "HgN/A
11:30 PM
Fri, Jul 29
64 °FClear.6 mph83%29.98 "Hg10 mi
11:00 PM66 °FPassing clouds.7 mph83%29.98 "HgN/A
10:30 PM64 °FPassing clouds.5 mph88%29.95 "HgN/A
10:00 PM66 °FClear.3 mph83%29.95 "Hg4 mi
9:30 PM66 °FSunny.5 mph83%29.95 "Hg10 mi
9:00 PM70 °FScattered clouds.6 mph73%29.95 "HgN/A
8:30 PM73 °FSunny.6 mph65%29.95 "Hg10 mi
8:00 PM73 °FPartly sunny.7 mph65%29.95 "HgN/A
7:30 PM75 °FPartly sunny.9 mph61%29.95 "HgN/A
7:00 PM75 °FBroken clouds.12 mph61%29.95 "HgN/A
6:30 PM75 °FBroken clouds.13 mph61%29.98 "HgN/A
6:00 PM75 °FMore clouds than sun.14 mph61%29.98 "HgN/A
5:30 PM75 °FSunny.13 mph61%29.98 "Hg10 mi
5:00 PM73 °FMostly cloudy.12 mph65%29.98 "HgN/A
4:30 PM73 °FMore clouds than sun.13 mph65%29.98 "HgN/A
4:00 PM73 °FPartly sunny.15 mph65%29.98 "HgN/A
3:30 PM75 °FMore clouds than sun.14 mph65%29.98 "HgN/A
3:00 PM73 °FBroken clouds.13 mph65%29.98 "HgN/A
2:30 PM72 °FMostly cloudy.13 mph65%30.01 "HgN/A
2:00 PM73 °FMostly cloudy.14 mph65%30.01 "HgN/A
1:30 PM73 °FBroken clouds.13 mph65%30.01 "HgN/A
1:00 PM73 °FPartly sunny.14 mph61%30.01 "HgN/A
12:30 PM73 °FBroken clouds.12 mph65%30.01 "HgN/A
12:00 PM72 °FBroken clouds.9 mph69%30.01 "HgN/A
11:30 AM70 °FPartly sunny.12 mph78%30.01 "HgN/A
11:00 AM68 °FPartly sunny.13 mph83%30.01 "HgN/A
10:30 AM66 °FBroken clouds.13 mph88%30.01 "HgN/A
10:00 AM66 °FLight rain. Broken clouds.13 mph88%30.01 "HgN/A
9:30 AM68 °FPartly sunny.12 mph78%30.01 "HgN/A
9:00 AM66 °FPartly sunny.12 mph83%30.01 "HgN/A
8:30 AM66 °FPartly sunny.8 mph83%30.01 "HgN/A
8:00 AM66 °FPartly sunny.7 mph83%30.01 "HgN/A
7:30 AM64 °FBroken clouds.5 mph83%30.01 "HgN/A
7:00 AM64 °FClear.6 mph83%30.01 "Hg10 mi
6:30 AM64 °FPassing clouds.6 mph83%29.98 "HgN/A
6:00 AM66 °FPassing clouds.6 mph78%30.01 "HgN/A
5:30 AM64 °FPartly cloudy.7 mph83%30.01 "HgN/A
5:00 AM64 °FMostly cloudy.6 mph83%30.01 "HgN/A
Weather by CustomWeather, © 2016

See weather overviewHow to use our weather pages